STARLINK-1974 (47629 NORAD) Tracking and Keplerian Element Data
This shows tracking and keplerian element data for the satellite.
Feedback or suggestion? Click here.
Element | Value |
Catalog | 47629 |
Name | STARLINK-1974 |
Epoch Orbit | 177 |
Epoch Day | 101.91668981 |
Epoch Year | 2021 |
RAAN | 188.9202 |
Inclination | 53.0473 |
Eccentricity | 0.0002308 |
Argument of Perigee | 25.3132 |
Mean Anonmoly | 49.9408 |
Mean Motion | 15.73215317 |
Decay Rate | -8.84E-05 |
L1 | 1 47629U 21012K 21101.91668981 -.00008840 00000-0 -58558-4 0 9994 |
L2 | 2 47629 53.0473 188.9202 0002308 25.3132 49.9408 15.73215317 1775 |
Live tracking and technical data element details for STARLINK-1974 (NORAD 47629). STARLINK-1974 can be tracked NOW for your location showing map with azimuth and elevation plus other details from your city location.
Track the satellite on the map from your city or location and see movement details for azimuth, elevation, latitude, longitude, range, height, and movement on the map or in text.
IsCatalogInMostPopularTable: catalog: 47629, numindb: 16
Update: records affected: 1
GetName: 47629 STARLINK-1974
Hit Count: updated at: Tue, 13 Apr 2021 03:26:30 GMT